Content
SEND FEEDBACK

Daily
Averages
Monthly
Summary
United States of America

MERIZO, GUAM


Home > North America > United States > Guam
Elevation: 10 feet     Latitude: 13 14N     Longitude: 144 39E

WEATHER
 
SELECT A DAY
Number of Records: 342,038;   Date Range: 1/1/95 - 7/29/14
 
SHARE

PRINT THIS DATA

[ ← Previous Day ]
WEATHER ALMANAC - FEBRUARY 19, 2013
[ Next Day → ]
[ °C ]   °F
Weather ElementAverageHighLow
Temperature78.5 °F82.8 °F (11:55 am)75.2 °F (6:01 pm)
Dewpoint73.3 °F75.2 °F (9:37 am)70.7 °F (10:55 pm)
Humidity84.2 %94 % (6:01 pm)70 % (11:57 am)
Barometer29.82 in29.87 in (8:55 am)29.77 in (3:20 pm)
Wind Speed19.4 mph29.9 mph (12:33 pm)
Wind Gust35.7 mph (12:33 pm)
Weather ElementAverage
Visibility9.5 mi
Wind DirectionENE (74.5 °)

Weather ElementTotal
Precipitation---
Cooling Degree Days14 (Base 65)
Growing Degree Days29 (Base 50)
Averaged from 138 records on February 19, 2013
WEATHER CONDITIONS BREAKOUT
WIND DIRECTION BREAKOUT
WEATHER BY HOUR - FEBRUARY 19, 2013
[ °C ]   °F
Local TimeTemperatureDewpointHumidityBarometerVisibilityWind DirectionWind SpeedGust SpeedPrecipitationEventsConditions
12:20 AM78.8 °F73.4 °F83 %29.83 in10.0 miEast (80°)17.3 mph23.0 mphMostly Cloudy
12:30 AM77.0 °F73.4 °F89 %29.83 in10.0 miEast (80°)17.3 mphLight Drizzle
12:31 AM77.0 °F73.4 °F89 %29.83 in10.0 miENE (70°)18.4 mphLight Drizzle
12:37 AM77.0 °F73.4 °F89 %29.83 in10.0 miENE (70°)20.7 mph25.3 mphLight Drizzle
12:39 AM77.0 °F73.4 °F89 %29.83 in10.0 miENE (70°)17.3 mph25.3 mphMostly Cloudy
12:43 AM77.0 °F73.4 °F89 %29.83 in10.0 miENE (70°)20.7 mph26.5 mphMostly Cloudy
12:55 AM77.2 °F73.2 °F88 %29.83 in10.0 miEast (80°)23.0 mph26.5 mph0.00 inMostly Cloudy
12:59 AM77.0 °F73.4 °F89 %29.83 in10.0 miEast (80°)18.4 mph26.5 mphMostly Cloudy
1:02 AM77.0 °F73.4 °F89 %29.83 in10.0 miEast (80°)18.4 mph26.5 mphMostly Cloudy
1:12 AM77.0 °F73.4 °F89 %29.83 in10.0 miEast (80°)19.6 mph27.6 mphMostly Cloudy
1:55 AM77.4 °F73.6 °F88 %29.81 in10.0 miENE (70°)20.7 mphScattered Clouds
1:59 AM77.0 °F73.4 °F89 %29.81 in10.0 miENE (70°)18.4 mphMostly Cloudy
2:08 AM77.0 °F73.4 °F89 %29.81 in10.0 miEast (80°)19.6 mphMostly Cloudy
2:28 AM77.0 °F73.4 °F89 %29.81 in10.0 miEast (80°)15.0 mph23.0 mphMostly Cloudy
2:30 AM77.0 °F73.4 °F89 %29.81 in10.0 miENE (70°)17.3 mphMostly Cloudy
2:31 AM77.0 °F73.4 °F89 %29.81 in10.0 miEast (80°)18.4 mphMostly Cloudy
2:35 AM77.0 °F73.4 °F89 %29.81 in10.0 miENE (70°)17.3 mphMostly Cloudy
2:37 AM77.0 °F73.4 °F89 %29.81 in10.0 miENE (70°)17.3 mphMostly Cloudy
2:38 AM77.0 °F73.4 °F89 %29.81 in10.0 miENE (70°)18.4 mphMostly Cloudy
2:55 AM77.5 °F73.8 °F88 %29.80 in10.0 miENE (70°)17.3 mphMostly Cloudy
3:11 AM77.0 °F73.4 °F89 %29.80 in10.0 miENE (70°)18.4 mph28.8 mphMostly Cloudy
3:40 AM77.0 °F71.6 °F83 %29.79 in10.0 miEast (80°)18.4 mphScattered Clouds
3:43 AM77.0 °F73.4 °F89 %29.79 in10.0 miEast (80°)20.7 mphMostly Cloudy
3:45 AM77.0 °F73.4 °F89 %29.79 in10.0 miEast (80°)21.9 mph27.6 mphScattered Clouds
3:46 AM77.0 °F73.4 °F89 %29.79 in10.0 miENE (70°)20.7 mph27.6 mphMostly Cloudy
3:55 AM77.9 °F72.3 °F83 %29.79 in10.0 miEast (80°)24.2 mph29.9 mphMostly Cloudy
4:22 AM78.8 °F71.6 °F78 %29.79 in10.0 miEast (80°)19.6 mph33.4 mphMostly Cloudy
4:28 AM78.8 °F71.6 °F78 %29.79 in10.0 miEast (80°)23.0 mph33.4 mphMostly Cloudy
4:42 AM78.8 °F71.6 °F78 %29.79 in10.0 miEast (80°)21.9 mphMostly Cloudy
4:50 AM77.0 °F73.4 °F89 %29.79 in10.0 miENE (70°)18.4 mph26.5 mphMostly Cloudy
4:55 AM77.7 °F72.1 °F83 %29.79 in10.0 miENE (70°)21.9 mph26.5 mphMostly Cloudy
4:59 AM77.0 °F71.6 °F83 %29.79 in10.0 miENE (70°)19.6 mph26.5 mphMostly Cloudy
5:01 AM77.0 °F71.6 °F83 %29.79 in10.0 miENE (70°)24.2 mph28.8 mphMostly Cloudy
5:04 AM78.8 °F71.6 °F78 %29.79 in10.0 miENE (70°)19.6 mph28.8 mphMostly Cloudy
5:07 AM78.8 °F71.6 °F78 %29.79 in10.0 miENE (70°)19.6 mph28.8 mphMostly Cloudy
5:55 AM77.9 °F71.1 °F79 %29.81 in10.0 miEast (80°)20.7 mph26.5 mphMostly Cloudy
6:09 AM77.0 °F71.6 °F83 %29.81 in10.0 miENE (70°)19.6 mph25.3 mphMostly Cloudy
6:11 AM77.0 °F71.6 °F83 %29.81 in10.0 miENE (70°)18.4 mph25.3 mphMostly Cloudy
6:19 AM77.0 °F71.6 °F83 %29.81 in10.0 miENE (70°)21.9 mph28.8 mphMostly Cloudy
6:55 AM77.9 °F71.6 °F81 %29.83 in10.0 miENE (70°)24.2 mph28.8 mphMostly Cloudy
7:55 AM78.8 °F72.3 °F80 %29.85 in10.0 miENE (70°)17.3 mph28.8 mphMostly Cloudy
8:02 AM78.8 °F73.4 °F83 %29.86 in10.0 miENE (70°)18.4 mphMostly Cloudy
8:03 AM78.8 °F73.4 °F83 %29.86 in10.0 miENE (70°)18.4 mphMostly Cloudy
8:07 AM78.8 °F73.4 °F83 %29.86 in10.0 miENE (70°)20.7 mphMostly Cloudy
8:09 AM78.8 °F73.4 °F83 %29.86 in10.0 miENE (70°)18.4 mphMostly Cloudy
8:10 AM78.8 °F73.4 °F83 %29.86 in10.0 miENE (70°)20.7 mphMostly Cloudy
8:15 AM78.8 °F71.6 °F78 %29.86 in10.0 miENE (70°)19.6 mphMostly Cloudy
8:21 AM78.8 °F71.6 °F78 %29.86 in10.0 miENE (70°)20.7 mphMostly Cloudy
8:26 AM78.8 °F73.4 °F83 %29.86 in10.0 miENE (70°)20.7 mph25.3 mphMostly Cloudy
8:55 AM79.9 °F72.1 °F77 %29.87 in10.0 miENE (70°)21.9 mph29.9 mphMostly Cloudy
9:06 AM80.6 °F71.6 °F74 %29.86 in10.0 miENE (70°)23.0 mph29.9 mphScattered Clouds
9:26 AM80.6 °F73.4 °F79 %29.86 in10.0 miENE (70°)19.6 mphMostly Cloudy
9:28 AM80.6 °F73.4 °F79 %29.86 in10.0 miENE (70°)20.7 mph26.5 mphScattered Clouds
9:37 AM82.4 °F75.2 °F79 %29.87 in10.0 miENE (70°)19.6 mphMostly Cloudy
9:42 AM82.4 °F75.2 °F79 %29.86 in10.0 miENE (60°)17.3 mphMostly Cloudy
9:44 AM82.4 °F75.2 °F79 %29.86 in10.0 miENE (70°)18.4 mphMostly Cloudy
9:50 AM82.4 °F73.4 °F74 %29.86 in10.0 miENE (70°)20.7 mph27.6 mphScattered Clouds
9:55 AM82.4 °F74.3 °F76 %29.86 in10.0 miENE (70°)20.7 mph27.6 mphScattered Clouds
9:59 AM82.4 °F75.2 °F79 %29.86 in10.0 miEast (80°)21.9 mphMostly Cloudy
10:10 AM80.6 °F75.2 °F84 %29.86 in10.0 miENE (70°)19.6 mphMostly Cloudy
10:11 AM80.6 °F75.2 °F84 %29.86 in10.0 miENE (60°)18.4 mphMostly Cloudy
10:12 AM80.6 °F75.2 °F84 %29.86 in10.0 miENE (70°)21.9 mph28.8 mphMostly Cloudy
10:55 AM82.6 °F73.9 °F75 %29.85 in10.0 miENE (70°)21.9 mph29.9 mphMostly Cloudy
11:55 AM82.8 °F72.3 °F71 %29.83 in10.0 miEast (80°)23.0 mph33.4 mphMostly Cloudy
11:57 AM82.4 °F71.6 °F70 %29.83 in10.0 miEast (80°)20.7 mph33.4 mphMostly Cloudy
12:08 PM82.4 °F73.4 °F74 %29.83 in10.0 miENE (70°)25.3 mph31.1 mphMostly Cloudy
12:16 PM82.4 °F73.4 °F74 %29.83 in10.0 miENE (70°)20.7 mph32.2 mphMostly Cloudy
12:23 PM82.4 °F73.4 °F74 %29.82 in10.0 miEast (80°)19.6 mph29.9 mphMostly Cloudy
12:33 PM82.4 °F73.4 °F74 %29.82 in10.0 miEast (80°)29.9 mph35.7 mphMostly Cloudy
12:40 PM78.8 °F73.4 °F83 %29.82 in10.0 miENE (70°)23.0 mph35.7 mphMostly Cloudy
12:55 PM80.2 °F73.6 °F80 %29.82 in10.0 miEast (80°)20.7 mph27.6 mphMostly Cloudy
1:06 PM82.4 °F75.2 °F79 %29.81 in10.0 miENE (70°)19.6 mph26.5 mphScattered Clouds
1:24 PM82.4 °F75.2 °F79 %29.80 in10.0 miEast (80°)21.9 mph33.4 mphMostly Cloudy
1:26 PM82.4 °F75.2 °F79 %29.80 in10.0 miENE (70°)26.5 mph33.4 mphMostly Cloudy
1:30 PM80.6 °F73.4 °F79 %29.80 in6.0 miEast (90°)25.3 mph34.5 mphHaze
1:31 PM78.8 °F73.4 °F83 %29.80 in5.0 miEast (90°)21.9 mph34.5 mphHaze
1:34 PM78.8 °F73.4 °F83 %29.80 in4.0 miEast (90°)18.4 mph34.5 mphHaze
1:40 PM77.0 °F73.4 °F89 %29.80 in6.0 miEast (80°)17.3 mph23.0 mphMostly Cloudy
1:55 PM80.2 °F74.3 °F82 %29.79 in10.0 miEast (80°)21.9 mph27.6 mphPartly Cloudy
2:11 PM80.6 °F73.4 °F79 %29.78 in10.0 miEast (80°)21.9 mph27.6 mphMostly Cloudy
2:55 PM81.3 °F74.1 °F79 %29.78 in10.0 miENE (70°)18.4 mphMostly Cloudy
3:20 PM82.4 °F73.4 °F74 %29.77 in10.0 miEast (80°)21.9 mph27.6 mphMostly Cloudy
3:24 PM82.4 °F73.4 °F74 %29.78 in10.0 miEast (80°)20.7 mph27.6 mphScattered Clouds
3:25 PM82.4 °F73.4 °F74 %29.77 in10.0 miEast (80°)19.6 mph27.6 mphMostly Cloudy
3:30 PM82.4 °F73.4 °F74 %29.77 in10.0 miEast (80°)20.7 mph27.6 mphScattered Clouds
3:31 PM82.4 °F73.4 °F74 %29.77 in10.0 miEast (80°)21.9 mphMostly Cloudy
3:45 PM80.6 °F73.4 °F79 %29.78 in10.0 miENE (60°)19.6 mphMostly Cloudy
3:55 PM80.8 °F74.1 °F80 %29.77 in10.0 miENE (60°)18.4 mphMostly Cloudy
4:33 PM80.6 °F73.4 °F79 %29.77 in10.0 miENE (60°)18.4 mph24.2 mphOvercast
4:36 PM80.6 °F73.4 °F79 %29.78 in10.0 miENE (70°)17.3 mph24.2 mphMostly Cloudy
4:38 PM80.6 °F73.4 °F79 %29.78 in10.0 miENE (70°)18.4 mph24.2 mphMostly Cloudy
4:49 PM80.6 °F73.4 °F79 %29.78 in10.0 miEast (80°)23.0 mph28.8 mphMostly Cloudy
4:55 PM79.9 °F71.4 °F75 %29.78 in10.0 miEast (80°)17.3 mph28.8 mphMostly Cloudy
5:35 PM78.8 °F73.4 °F83 %29.78 in10.0 miENE (70°)20.7 mphMostly Cloudy
5:44 PM78.8 °F73.4 °F83 %29.79 in9.0 miEast (80°)27.6 mph34.5 mphLight Drizzle
5:47 PM78.8 °F75.2 °F89 %29.79 in8.0 miEast (80°)24.2 mph34.5 mphLight Drizzle
5:51 PM77.0 °F73.4 °F89 %29.79 in8.0 miENE (70°)26.5 mph34.5 mphLight Drizzle
5:54 PM77.0 °F73.4 °F89 %29.80 in9.0 miENE (70°)23.0 mph32.2 mphOvercast
5:55 PM76.1 °F73.2 °F91 %29.80 in10.0 miENE (70°)23.0 mph32.2 mph0.00 inOvercast
6:01 PM75.2 °F73.4 °F94 %29.80 in6.0 miEast (80°)26.5 mph32.2 mphOvercast
6:02 PM75.2 °F73.4 °F94 %29.80 in4.0 miEast (80°)27.6 mph32.2 mphOvercast
6:06 PM75.2 °F73.4 °F94 %29.80 in2.5 miEast (80°)23.0 mph31.1 mphOvercast
6:08 PM75.2 °F73.4 °F94 %29.80 in2.0 miEast (80°)21.9 mphOvercast
6:12 PM75.2 °F71.6 °F89 %29.80 in2.5 miEast (80°)16.1 mphLight Drizzle
6:14 PM75.2 °F71.6 °F89 %29.80 in3.0 miEast (80°)13.8 mphLight Drizzle
6:24 PM75.2 °F71.6 °F89 %29.80 in10.0 miEast (80°)11.5 mphOvercast
6:25 PM75.2 °F71.6 °F89 %29.80 in10.0 miEast (80°)12.7 mphOvercast
6:55 PM76.6 °F73.4 °F90 %29.81 in10.0 miENE (70°)18.4 mph0.00 inMostly Cloudy
6:57 PM77.0 °F73.4 °F89 %29.81 in10.0 miENE (70°)20.7 mphMostly Cloudy
7:10 PM77.0 °F75.2 °F94 %29.81 in10.0 miENE (70°)13.8 mphMostly Cloudy
7:15 PM77.0 °F75.2 °F94 %29.81 in10.0 miENE (60°)15.0 mphOvercast
7:18 PM77.0 °F75.2 °F94 %29.82 in10.0 miENE (60°)15.0 mphOvercast
7:20 PM77.0 °F75.2 °F94 %29.82 in10.0 miENE (70°)15.0 mphOvercast
7:33 PM77.0 °F75.2 °F94 %29.82 in10.0 miENE (70°)18.4 mphOvercast
7:42 PM77.0 °F75.2 °F94 %29.82 in10.0 miENE (70°)18.4 mph23.0 mphOvercast
7:50 PM77.0 °F75.2 °F94 %29.82 in10.0 miEast (80°)15.0 mph23.0 mphMostly Cloudy
7:55 PM77.4 °F74.5 °F91 %29.82 in10.0 miEast (80°)15.0 mphMostly Cloudy
8:06 PM77.0 °F73.4 °F89 %29.82 in10.0 miEast (80°)15.0 mphOvercast
8:19 PM77.0 °F73.4 °F89 %29.83 in10.0 miENE (70°)17.3 mphMostly Cloudy
8:27 PM77.0 °F73.4 °F89 %29.83 in10.0 miEast (90°)17.3 mph24.2 mphMostly Cloudy
8:33 PM77.0 °F73.4 °F89 %29.83 in10.0 miEast (80°)13.8 mphScattered Clouds
8:38 PM77.0 °F73.4 °F89 %29.83 in10.0 miEast (80°)15.0 mphMostly Cloudy
8:50 PM77.0 °F73.4 °F89 %29.83 in10.0 miEast (80°)18.4 mph26.5 mphMostly Cloudy
8:53 PM77.0 °F73.4 °F89 %29.83 in10.0 miEast (90°)19.6 mph26.5 mphMostly Cloudy
8:55 PM77.5 °F72.7 °F85 %29.84 in10.0 miEast (80°)19.6 mph27.6 mphScattered Clouds
8:57 PM77.0 °F73.4 °F89 %29.84 in10.0 miEast (80°)16.1 mph27.6 mphMostly Cloudy
9:09 PM77.0 °F73.4 °F89 %29.84 in10.0 miEast (80°)18.4 mph23.0 mphMostly Cloudy
9:55 PM77.4 °F73.8 °F89 %29.84 in10.0 miEast (80°)16.1 mphMostly Cloudy
10:07 PM77.0 °F73.4 °F89 %29.84 in10.0 miENE (70°)19.6 mphMostly Cloudy
10:09 PM77.0 °F73.4 °F89 %29.84 in10.0 miEast (80°)17.3 mphMostly Cloudy
10:22 PM77.0 °F73.4 °F89 %29.85 in9.0 miENE (70°)19.6 mph27.6 mphLight Drizzle
10:26 PM77.0 °F71.6 °F83 %29.83 in9.0 miENE (70°)12.7 mph27.6 mphLight Drizzle
10:28 PM77.0 °F71.6 °F83 %29.84 in9.0 miEast (80°)11.5 mph27.6 mphLight Drizzle
10:32 PM77.0 °F71.6 °F83 %29.84 in9.0 miEast (80°)13.8 mphOvercast
10:55 PM76.8 °F70.7 °F81 %29.84 in10.0 miEast (80°)13.8 mph0.00 inMostly Cloudy
11:51 PM77.0 °F73.4 °F89 %29.84 in10.0 miENE (70°)16.1 mphMostly Cloudy
11:55 PM77.0 °F73.6 °F89 %29.83 in10.0 miEast (80°)15.0 mphMostly Cloudy
11:56 PM77.0 °F73.4 °F89 %29.83 in10.0 miENE (70°)13.8 mphMostly Cloudy
Hourly data recorded from PGUA, located miles away from Merizo, Guam







STORIES FROM OUR PARTNERS